Regional Weather Roundup
Issued by NWS

Home | Current Version | Previous Version | Text Only | Print | Product List | Glossary Off
Versions: 1 2 3 4 5 6 7 8 9 10 11 12 13 14 15 16 17 18 19 20 21 22 23 24 25 26 27 28 29 30 31 32 33 34 35 36 37 38 39 40 41 42 43 44 45 46 47 48 49 50

000
ASUS43 KMKX 071210
RWRWI

WISCONSIN REGIONAL WEATHER ROUNDUP
NATIONAL WEATHER SERVICE MILWAUKEE/SULLIVAN WI
600 AM CST SUN FEB 07 2016

NOTE: "FAIR" INDICATES FEW OR NO CLOUDS BELOW 12,000 FEET WITH NO
SIGNIFICANT WEATHER AND/OR OBSTRUCTIONS TO VISIBILITY.

WIZ001-002-006>008-014>016-023>028-071300-
NORTHWEST WISCONSIN

CITY           SKY/WX    TMP DP  RH WIND       PRES   REMARKS
SUPERIOR ARPT  CLOUDY    34  31  87 SW7       29.49F WCI  28
6HR MIN TEMP:  32; 6HR MAX TEMP:  34;

ASHLAND        PTCLDY    28  25  88 W6        29.54S WCI  22
6HR MIN TEMP:  28; 6HR MAX TEMP:  32; 6HR PCP:  0.01;

HAYWARD        CLOUDY    31  27  85 S13       29.55R WCI  21
6HR MIN TEMP:  30; 6HR MAX TEMP:  31; 6HR PCP: TRACE;

SIREN          CLOUDY    33  29  86 SW10      29.55F WCI  25
6HR MIN TEMP:  32; 6HR MAX TEMP:  33;

CUMBERLAND     CLOUDY    30  28  93 SW12      29.57F WCI  21
RICE LAKE      CLOUDY    32  28  85 S7        29.60F WCI  26
6HR MIN TEMP:  30; 6HR MAX TEMP:  32;

CHETEK         CLOUDY    32  28  87 S6        29.60F WCI  26
6HR MIN TEMP:  30; 6HR MAX TEMP:  32;

LADYSMITH      CLOUDY    32  30  93 S10       29.61F WCI  23
6HR MIN TEMP:  29; 6HR MAX TEMP:  32;

EAU CLAIRE     CLEAR     27  23  85 SW8       29.63F WCI  19
6HR MIN TEMP:  27; 6HR MAX TEMP:  33;

MENOMONIE      CLEAR     31  26  83 S9        29.63S WCI  23
6HR MIN TEMP:  30; 6HR MAX TEMP:  34;

NEW RICHMOND   CLOUDY    31  27  84 SW9       29.60F WCI  23
6HR MIN TEMP:  29; 6HR MAX TEMP:  32;

OSCEOLA        CLOUDY    33  30  88 SW10      29.61F WCI  25
6HR MIN TEMP:  32; 6HR MAX TEMP:  33;

$$

WIZ003>005-009-010-017-018-071300-
NORTH CENTRAL WISCONSIN

CITY           SKY/WX    TMP DP  RH WIND       PRES   REMARKS
MANITOWISH WTR MIX PCPN  29  28  97 S8        29.56F WCI  21
6HR MIN TEMP:  28; 6HR MAX TEMP:  29;

ARBOR VITAE    CLOUDY    32  29  90 SW8       29.58F WCI  25
6HR MIN TEMP:  29; 6HR MAX TEMP:  32;

WOODRUFF       CLOUDY    32  29  90 SW8       29.58F WCI  25
6HR MIN TEMP:  29; 6HR MAX TEMP:  32;

RHINELANDER    CLOUDY    29  26  89 SW10      29.59F WCI  20
6HR MIN TEMP:  28; 6HR MAX TEMP:  29; 6HR PCP:  0.01;

EAGLE RIVER    CLOUDY    29  28  96 SW7       29.58F FOG     WCI  22
LAND O LAKES   CLOUDY    29  28  93 S6        29.58F WCI  23
6HR MIN TEMP:  28; 6HR MAX TEMP:  30;

PHILLIPS       CLOUDY    30  28  94 S8        29.57F WCI  22
6HR MIN TEMP:  28; 6HR MAX TEMP:  30;

TOMAHAWK       CLOUDY    29  27  90 S3        29.61F
6HR MIN TEMP:  27; 6HR MAX TEMP:  29;

MEDFORD        LGT SNOW  30  29  96 S8        29.61F WCI  22
6HR MIN TEMP:  28; 6HR MAX TEMP:  30;

MERRILL        LGT SNOW  30  29  96 SW5       29.63F WCI  25
6HR MIN TEMP:  28; 6HR MAX TEMP:  31;

$$

WIZ029-030-035-036-043>047-071300-
CENTRAL WISCONSIN

CITY           SKY/WX    TMP DP  RH WIND       PRES   REMARKS
WAUSAU         CLOUDY    32  28  85 S6        29.62F WCI  26
6HR MIN TEMP:  30; 6HR MAX TEMP:  32; 6HR PCP: TRACE;

MOSINEE        CLEAR     30  28  93 SW9       29.65F WCI  22
MARSHFIELD     CLOUDY    32  26  78 SW9       29.63F WCI  24
6HR MIN TEMP:  30; 6HR MAX TEMP:  32; 6HR PCP: TRACE;

STEVENS POINT  CLOUDY    30  27  89 SW6       29.67F WCI  24
6HR MIN TEMP:  28; 6HR MAX TEMP:  31;

WAUPACA        CLOUDY    36  30  80 S6        29.69F WCI  31
6HR MIN TEMP:  32; 6HR MAX TEMP:  36;

WAUTOMA        MOCLDY    35  31  86 S6        29.70F WCI  30
6HR MIN TEMP:  30; 6HR MAX TEMP:  35;

WISC RAPIDS    PTCLDY    33  27  78 SW8       29.68F WCI  26
6HR MIN TEMP:  30; 6HR MAX TEMP:  33; 6HR PCP: TRACE;

CAMP DOUGLAS   CLOUDY    36  35  98 S10       29.67F WCI  28
6HR MIN TEMP:  32; 6HR MAX TEMP:  36;

$$

WIZ011>013-019>022-031-037>040-048>050-071300-
NORTHEAST WISCONSIN

CITY           SKY/WX    TMP DP  RH WIND       PRES   REMARKS
ANTIGO         LGT SNOW  30  28  95 SW12      29.63F WCI  20
6HR MIN TEMP:  27; 6HR MAX TEMP:  30;

SHAWANO        CLOUDY    34  30  84 S3        29.69F
6HR MIN TEMP:  31; 6HR MAX TEMP:  34;

OCONTO         CLOUDY    34  31  88 S7        29.69F WCI  28
6HR MIN TEMP:  29; 6HR MAX TEMP:  34;

STURGEON BAY   CLOUDY    36  28  75 S12       29.74R WCI  27
6HR MIN TEMP:  28; 6HR MAX TEMP:  36;

GREEN BAY      CLOUDY    36  30  79 S10       29.71F WCI  28
6HR MIN TEMP:  29; 6HR MAX TEMP:  36; 6HR PCP: TRACE;

MANITOWOC      CLOUDY    35  30  82 S8        29.74F WCI  29
6HR MIN TEMP:  31; 6HR MAX TEMP:  35;

APPLETON       CLOUDY    36  28  75 S17       29.70F WCI  25
CLINTONVILLE   CLOUDY    34  30  86 S7        29.69F WCI  28
OSHKOSH        CLOUDY    36  29  75 SW13G23   29.71F WCI  27
6HR MIN TEMP:  30; 6HR MAX TEMP:  37;

$$

WIZ032>034-041-042-053>061-071300-
SOUTHWEST WISCONSIN

CITY           SKY/WX    TMP DP  RH WIND       PRES   REMARKS
LA CROSSE      CLOUDY    34  27  75 S12       29.70F WCI  25
6HR MIN TEMP:  32; 6HR MAX TEMP:  36;

SPARTA         CLOUDY    35  30  82 SW5       29.69F WCI  31
6HR MIN TEMP:  32; 6HR MAX TEMP:  36; 6HR PCP:  0.01;

VIROQUA        CLOUDY    33  29  85 SW13      29.69F WCI  24
6HR MIN TEMP:  32; 6HR MAX TEMP:  35;

BOSCOBEL       CLOUDY    38  31  76 SW6       29.75F WCI  33
6HR MIN TEMP:  34; 6HR MAX TEMP:  39;

PRAIRIE DU CHI PTCLDY    37  28  70 SW5       29.76S WCI  33
6HR MIN TEMP:  37; 6HR MAX TEMP:  38;

PLATTEVILLE    CLOUDY    35  31  85 S13       29.75F WCI  26
6HR MIN TEMP:  33; 6HR MAX TEMP:  37;

$$

WIZ056-057-062-063-064-067-068-071300-
SOUTH CENTRAL WISCONSIN

CITY           SKY/WX    TMP DP  RH WIND       PRES   REMARKS
REEDSBURG      CLOUDY    36  30  80 SW9       29.72S WCI  29
6HR MIN TEMP:  32; 6HR MAX TEMP:  36;

BARABOO/DELLS  CLOUDY    36  29  75 W9        29.72R WCI  29
6HR MIN TEMP:  32; 6HR MAX TEMP:  36;

LONE ROCK      CLOUDY    37  29  72 W8        29.76R WCI  31
6HR MIN TEMP:  34; 6HR MAX TEMP:  38;

MINERAL POINT  CLOUDY    36  32  87 S15       29.73F WCI  26
MADISON        CLOUDY    37  29  72 SW12G21   29.75F WCI  29
6HR MIN TEMP:  32; 6HR MAX TEMP:  37;

MIDDLETON      CLOUDY    38  30  72 SW13G23   29.73F WCI  31
6HR MIN TEMP:  34; 6HR MAX TEMP:  39;

WATERTOWN      CLOUDY    36  31  81 S15G22    29.75F WCI  27
6HR MIN TEMP:  30; 6HR MAX TEMP:  37;

MONROE         CLOUDY    36  32  87 SW23      29.76F WCI  24
JANESVILLE     CLOUDY    39  30  70 SW13      29.80F WCI  32
$$

WIZ051-052-058>065-066-070>072-071300-
SOUTHEAST WISCONSIN

CITY           SKY/WX    TMP DP  RH WIND       PRES   REMARKS
MILWAUKEE      CLOUDY    36  29  75 S9        29.80F WCI  29
6HR MIN TEMP:  32; 6HR MAX TEMP:  36;

WAUKESHA       PTCLDY    36  28  75 S3        29.81S
MILWAUKEE/TIMM CLOUDY    36  28  75 S12G17    29.79F WCI  27
RACINE         CLOUDY    38  28  67 SW14G22   29.83F WCI  30
6HR MIN TEMP:  33; 6HR MAX TEMP:  38;

BURLINGTON     CLOUDY    34  28  79 S16G22    29.80F WCI  24
6HR MIN TEMP:  29; 6HR MAX TEMP:  34;

KENOSHA        CLOUDY    37  28  70 SW13      29.82F WCI  29
6HR MIN TEMP:  32; 6HR MAX TEMP:  38;

FOND DU LAC    CLOUDY    37  29  72 S20G28    29.71F WCI  27
6HR MIN TEMP:  32; 6HR MAX TEMP:  38;

SHEBOYGAN      CLOUDY    36  29  75 S10       29.74F WCI  28
6HR MIN TEMP:  30; 6HR MAX TEMP:  36;

WEST BEND      CLOUDY    36  30  80 S13G21    29.75F WCI  27
JUNEAU         CLOUDY    36  30  79 S15       29.75F WCI  26
6HR MIN TEMP:  30; 6HR MAX TEMP:  36;

$$

LSZ147-162-071300-
LAKE SUPERIOR

STATION/POSITION TIME  TEMP    WIND        PRES    WAVE
                       AIR SEA DIR/SP/G            HT/PER
                 (UTC) (F)     (DEG/KT/KT) (MB)    (FT/S)
DEVILS ISLAND    1200   32     180/  6/  8 1000.2F
SAXON HARBOR     1100   34                  999.7
$$

LMZ867-665-643>646-071300-
LAKE MICHIGAN

STATION/POSITION TIME  TEMP    WIND        PRES    WAVE
                       AIR SEA DIR/SP/G            HT/PER
                 (UTC) (F)     (DEG/KT/KT) (MB)    (FT/S)
CHAMBERS ISLAND  1100  C1F1C2F2C3F3C4F4C5F5C6F6C7F7C8M1C9M2Ca!


USA.gov is the U.S. government's official web portal to all federal, state and local government web resources and services.